SCP
0 0 0 0 0 0 0 0 0 0 0 0 0 0 0 0 0 0 0 0 0 -0 0 0 0 0 0 0 0 0 0 0 0 0 0 0 0 0 0 0 0 0 0 0 0 0 0 -0 -0 0 0 0 0 0
0 0 0 0 0 0 0 0 0 0 0 0 0 0 0 0 0 0 0 0 0 0 0 0 0 0 0 0 0 0 0 0 0 0 0 0 0 0 0 0 0 0 0 0 0 0 0 -0 0 0 0 0 0 0
0 0 0 0 0 0 0 0 0 0 0 0 0 0 0 0 0 0 0 0 0 -0 0 0 0 0 0 0 0 0 0 -0 0 0 0 0 0 0 0 0 0 0 0 0 0 -0 -0 0 -0 0 0 0 0 0
0 0 0 0 0 0 0 0 0 0 0 0 0 0 0 0 0 0 0 0 0 0 0 0 0 0 -0 0 0 0 0 0 0 0 0 0 0 0 0 0 0 0 0 0 0 0 0 0 -0 0 0 0 0 0
0 0 0 0 0 0 0 0 0 0 0 0 0 0 0 0 0 0 0 0 0 0 0 0 0 0 0 0 -0 -0 0 0 0 0 0 0 0 0 0 0 0 0 0 0 -0 -0 0 0 0 0 0 0 0 0
0 0 0 0 0 0 0 0 0 0 0 0 0 0 0 0 0 0 0 0 0 0 0 0 0 0 0 0 0 -0 0 0 0 0 0 0 0 0 0 0 0 0 0 0 0 0 0 0 0 0 0 0 0 0
0 0 0 0 0 0 0 0 0 0 0 0 0 0 0 0 0 0 0 0 0 0 0 0 0 0 -0 0 0 0 0 0 0 0 0 0 -0 0 0 0 0 0 0 0 0 0 0 0 0 0 0 0 0 0
0 0 0 0 0 0 0 0 0 0 0 0 0 0 0 0 0 0 0 0 0 0 0 0 0 0 0 0 0 0 0 0 0 0 0 0 -0 0 0 0 0 0 0 0 0 0 0 0 0 0 0 0 0 0
0 0 0 0 0 0 0 0 0 0 0 0 0 0 0 0 0 0 0 0 0 0 0 0 0 0 0 0 0 0 0 0 0 -0 0 0 -0 0 0 0 0 0 0 0 0 0 0 0 0 0 0 0 0 0
0 0 0 0 0 0 0 0 0 0 0 0 0 0 0 0 0 -0 0 0 0 0 0 0 0 -0 0 0 0 0 -0 0 0 0 0 0 -0 -0 0 0 0 0 0 0 0 0 0 0 0 -0 -0 -0 -0 0
0 0 0 0 0 0 0 0 0 0 0 0 0 0 0 -0 0 0 0 0 0 0 0 0 0 0 0 0 0 -0 -0 0 0 0 0 0 -0 -0 0 0 0 0 0 0 0 1 0 0 0 0 0 0 -0 -0
0 0 0 0 0 0 0 0 0 0 0 0 0 0 0 0 0 0 0 0 -0 0 0 0 0 0 0 -0 -0 -0 -0 0 0 0 0 0 0 0 -0 -0 0 0 0 0 0 0 0 0 0 0 0 0 0 0
0 0 0 0 0 0 0 0 0 0 0 0 0 0 0 0 0 0 0 0 -0 0 0 0 0 -0 -0 -0 -0 -0 -0 0 1 0 0 0 0 0 0 -0 -0 0 0 0 0 0 0 0 0 0 0 0 0 0
0 0 0 0 0 0 0 0 0 0 0 0 0 0 0 0 0 0 0 0 -0 0 0 0 0 -0 -0 -0 0 0 0 -0 0 0 0 0 0 0 0 0 0 0 0 0 0 0 0 0 0 0 0 0 1 0
0 0 -0 -0 0 0 0 0 0 0 0 0 0 0 0 0 0 0 0 -0 -0 -0 -0 0 -0 -0 -0 -0 -0 -0 0 -0 0 0 0 0 0 0 0 0 0 0 0 0 0 0 0 0 0 0 0 0 0 1
0 0 0 0 0 0 0 0 0 0 0 0 0 0 0 0 0 0 -0 -0 -0 -0 -0 0 -0 -0 -0 -0 -0 -0 0 0 0 0 0 0 0 0 0 0 0 0 0 0 0 0 0 0 0 0 0 0 0 0
0 0 0 0 0 0 0 0 0 0 0 0 0 0 0 0 0 0 0 0 0 -0 -0 0 -0 -0 -0 -0 -0 -0 -0 -0 -0 0 0 0 0 0 0 0 0 0 0 0 0 0 0 0 0 0 1 1 0 0
0 0 0 0 0 0 0 0 0 0 0 0 0 0 0 0 0 0 0 -0 -0 -0 0 -0 -0 -0 -0 -0 -0 -0 -0 -0 -0 -0 0 0 0 0 0 0 0 0 0 0 0 0 0 0 1 1 1 1 1 1
0 0 0 0 0 0 0 0 0 0 0 0 0 0 0 0 0 0 0 0 0 0 0 0 -0 -0 -0 -0 -0 -0 -0 -0 -0 -0 0 0 0 0 0 0 0 0 0 0 0 0 0 0 1 1 1 1 1 1
0 0 0 0 0 0 0 0 0 0 0 0 0 0 0 0 -0 0 0 0 0 0 0 0 -0 -0 -0 -0 -0 0 0 -0 -0 -0 -0 0 0 0 0 0 0 0 0 0 0 1 1 1 1 1 1 1 1 1
0 0 0 0 0 0 0 0 0 0 0 0 0 0 0 0 0 0 0 0 0 0 0 -0 -0 0 -0 -0 -0 -0 -0 -0 -0 -0 -0 -0 -0 0 0 0 0 0 0 0 0 0 0 1 1 0 0 0 0 0
0 0 0 0 0 0 0 0 0 0 0 0 0 0 0 0 0 0 0 -0 -0 0 0 0 0 0 0 -0 0 -0 -0 -0 -0 0 0 0 -0 -0 0 0 0 0 0 0 0 0 0 0 0 0 0 0 0 0
0 0 0 0 0 0 0 0 0 0 0 0 0 0 0 0 0 0 0 0 0 0 -0 0 0 0 0 0 0 0 -0 -0 -0 -0 0 0 0 -0 -0 0 0 0 0 0 0 0 0 0 0 0 0 0 0 0
0 0 0 0 0 0 0 0 0 0 0 0 0 0 0 0 0 0 0 0 0 0 -0 -0 0 0 0 0 0 0 0 0 -0 0 -0 0 0 0 0 0 0 0 0 0 0 0 0 0 0 0 0 0 0 0
0 0 0 0 0 0 -0 -0 -0 0 0 0 0 0 0 0 0 0 0 0 0 0 0 0 -0 0 0 -0 -0 -0 -0 -0 -0 0 0 0 0 0 0 -0 -0 0 0 0 0 0 0 0 0 0 0 0 0 0
0 0 0 0 0 0 0 0 -0 0 0 0 0 -0 0 0 0 0 0 0 0 0 -0 -0 -0 -0 -0 -0 -0 -0 0 0 0 0 0 0 -0 0 0 0 -0 0 0 0 0 0 0 0 0 0 0 0 0 0
0 0 0 -0 0 0 0 0 0 0 0 0 -0 0 0 0 0 0 0 0 0 0 0 0 0 0 0 0 0 0 0 0 0 0 0 0 -0 0 0 0 0 0 0 0 0 0 0 0 0 0 0 0 0 0
-0 -0 -0 0 0 0 0 0 0 0 0 0 -0 -0 -0 0 0 0 0 0 0 0 0 0 0 0 0 0 0 0 0 0 0 0 -0 0 0 0 0 0 0 0 0 0 0 0 0 0 0 0 0 0 0 0
-0 -0 -0 0 0 0 0 0 0 0 -0 0 0 -0 0 -0 0 0 0 -0 0 0 0 0 0 0 0 0 0 0 0 -0 -0 0 0 -0 0 0 0 0 0 0 0 0 0 0 0 0 0 0 0 0 0 0
-0 -0 -0 0 0 0 0 0 0 -0 0 0 -0 -0 -0 -0 -0 0 -0 -0 -0 -0 -0 0 0 0 -0 -0 0 0 -0 0 -0 0 0 0 0 0 0 0 0 0 0 0 0 0 0 0 0 0 0 0 0 0
0 0 0 -0 -0 0 0 -0 -0 -0 -0 -0 -0 -0 -0 0 0 0 0 0 0 0 0 0 -0 -0 0 -0 -0 -0 0 -0 -0 0 -0 -0 0 0 0 0 0 0 0 0 0 0 0 0 0 0 0 0 0 0
-0 0 -0 0 0 -0 -0 -0 -0 0 0 0 0 0 0 0 0 0 0 0 0 0 0 0 0 0 -0 0 -0 -0 0 0 0 0 0 -0 0 0 0 0 0 0 0 -0 -0 -0 -0 0 0 0 0 0 0 0
-0 -0 -0 -0 -0 -0 -0 -0 -0 0 0 0 0 0 0 0 0 0 -0 0 0 0 0 0 0 0 0 0 0 0 0 0 0 0 0 0 0 0 0 -0 -0 -0 -0 -0 -0 0 0 0 0 0 0 0 0 0
Wind_Speed_500mb
36 38 42 45 42 40 41 41 41 38 36 35 33 30 28 30 35 34 29 19 23 10 50 35 13 21 17 12 10 25 24 2 9 8 6 9 10 15 12 10 13 17 14 11 8 13 19 21 22 16 8 13 29 36
38 39 42 43 40 39 42 43 42 41 38 35 35 34 31 29 31 37 33 32 32 20 41 62 70 80 63 64 44 15 19 26 9 9 6 9 8 7 15 23 3 11 15 10 17 15 6 42 11 21 14 11 19 39
39 40 43 42 39 40 42 43 41 40 38 35 34 34 31 30 31 31 41 41 35 23 52 26 14 36 44 34 21 22 16 17 13 4 10 7 12 5 11 15 13 15 16 12 4 20 19 19 33 24 17 7 12 21
39 42 42 39 40 42 43 43 42 39 37 36 34 34 33 31 31 34 41 46 39 21 12 29 18 31 18 14 26 42 50 40 29 26 10 9 10 5 7 10 15 7 23 17 11 17 8 22 41 33 29 13 17 26
40 41 39 39 42 42 43 43 41 40 38 37 36 36 35 33 34 44 49 53 33 22 12 33 69 62 29 38 44 52 66 59 42 17 17 16 20 14 9 6 9 17 13 14 16 23 17 18 43 49 39 20 24 34
40 39 39 40 41 43 43 42 42 41 39 38 38 37 36 34 36 44 17 2 3 16 15 11 27 71 52 27 33 42 56 53 53 26 20 25 44 18 10 8 17 32 28 22 9 15 26 21 26 47 38 30 32 32
39 38 39 40 41 42 41 41 42 41 39 41 41 41 39 36 37 30 16 16 22 20 9 17 17 16 36 32 19 25 40 41 47 48 44 40 14 21 18 22 19 30 33 30 25 22 10 23 25 49 30 33 33 29
37 38 39 39 39 38 39 40 41 39 39 42 45 45 43 44 49 53 52 33 26 31 17 7 12 16 9 35 20 2 7 33 34 44 32 36 29 23 12 36 54 26 25 20 22 35 5 21 43 44 40 41 37 32
37 38 38 38 38 37 38 37 37 37 40 41 42 41 44 19 5 4 20 14 23 30 10 14 8 14 7 6 16 11 9 12 22 22 30 19 17 19 25 51 32 37 20 15 18 22 23 32 51 49 45 37 31 35
37 37 37 37 37 36 33 31 32 35 36 36 35 10 7 5 12 23 16 8 19 23 19 15 31 25 40 51 15 7 12 13 15 24 39 18 27 40 42 49 51 33 30 16 15 11 23 33 50 57 50 34 26 30
33 32 34 34 31 27 26 29 29 31 30 18 10 9 17 37 27 7 7 13 16 10 12 14 29 23 33 15 8 17 5 10 15 21 27 17 20 32 59 67 44 25 23 24 21 12 16 47 70 61 52 43 34 28
30 30 29 26 22 21 22 21 23 24 21 20 26 38 21 5 4 7 5 10 6 4 10 12 23 44 27 28 14 14 9 9 14 28 17 13 8 11 29 56 60 44 33 26 26 21 13 24 61 63 59 52 46 40
28 26 23 21 20 19 20 18 19 19 21 18 6 7 5 3 4 4 4 4 7 11 15 30 22 20 15 23 10 7 12 9 8 13 6 10 35 47 38 33 42 40 37 33 29 30 24 23 43 61 60 56 53 46
22 19 17 17 16 18 18 16 11 8 9 5 6 9 4 5 5 6 6 9 21 25 54 55 34 12 11 7 7 12 9 3 10 8 8 14 49 59 53 36 34 37 34 35 31 34 37 34 39 60 55 54 56 53
18 17 17 14 14 12 10 8 6 5 5 6 5 7 8 12 16 20 28 27 38 44 43 44 18 13 6 8 1 6 15 10 14 9 7 40 70 65 59 39 33 38 38 41 38 43 44 43 42 54 56 44 47 56
15 14 12 9 6 3 2 2 2 5 6 6 9 10 17 20 23 18 23 29 36 40 45 22 6 7 5 10 10 11 10 11 9 9 50 66 65 69 61 41 34 41 50 49 48 46 47 49 48 49 50 46 44 55
14 12 8 3 7 9 4 3 5 7 6 8 11 20 31 35 34 31 25 31 38 24 6 9 9 8 9 7 10 5 2 6 15 38 51 69 64 65 50 42 38 38 39 48 56 51 48 49 52 52 50 50 51 51
14 13 11 12 8 2 5 5 5 6 10 15 15 14 16 28 35 33 32 32 14 14 13 4 9 5 5 7 8 7 16 32 22 44 46 60 69 61 42 42 42 31 27 42 59 56 48 55 56 57 58 58 55 52
14 12 13 8 3 1 1 4 6 7 13 18 27 30 28 33 47 41 35 32 28 21 14 8 7 5 3 2 16 34 39 33 34 45 44 42 51 50 39 41 32 21 9 27 47 57 52 57 66 68 65 60 57 52
16 12 9 4 1 0 3 5 6 9 10 9 25 23 23 28 32 36 31 25 22 8 8 6 6 5 9 24 39 45 42 32 32 41 43 49 54 50 36 39 36 24 6 15 37 48 51 62 64 64 64 60 54 49
15 12 5 4 3 6 6 5 10 11 13 12 20 26 20 23 23 12 8 8 5 6 8 12 22 30 39 40 29 29 25 25 25 27 33 44 45 43 37 33 35 31 14 17 32 45 62 67 70 63 63 57 52 54
11 12 5 2 1 4 8 11 11 12 10 14 16 10 14 13 9 5 12 6 5 4 10 22 29 33 34 26 17 20 22 16 16 24 20 28 34 36 31 31 42 37 31 21 31 43 56 65 68 68 64 65 64 63
11 7 2 2 2 5 7 9 7 7 7 7 11 8 6 8 8 21 6 4 3 10 21 28 31 23 17 16 13 18 21 22 22 23 22 26 30 21 15 22 35 34 35 31 33 47 55 58 64 70 70 69 68 67
6 3 3 4 5 5 7 7 8 7 7 7 6 10 7 7 15 6 6 5 7 17 25 24 24 18 11 10 10 22 29 27 26 22 19 27 25 17 17 21 27 32 43 43 44 52 60 68 72 74 72 72 69 67
2 4 5 6 7 5 6 5 5 6 6 11 5 6 8 12 7 8 6 10 26 27 17 12 15 12 12 12 14 26 24 37 31 19 17 22 28 34 23 19 27 26 34 47 58 66 56 57 64 66 67 66 67 66
4 7 8 5 5 6 4 5 4 5 7 5 5 9 9 7 3 9 6 19 24 21 20 14 14 13 13 17 21 28 32 25 18 13 11 15 19 24 32 21 18 19 23 28 28 49 51 59 61 53 54 61 65 63
5 6 8 11 7 7 9 10 6 5 4 6 6 6 5 7 5 7 34 43 37 25 11 8 11 16 19 20 22 16 24 14 10 19 21 20 23 17 14 33 27 15 22 23 19 20 14 21 26 32 26 30 39 40
9 5 7 6 8 11 6 4 3 5 6 7 6 4 5 7 5 20 33 34 26 19 14 20 18 14 20 22 18 17 15 18 24 31 34 28 24 25 21 22 24 20 28 32 32 31 40 39 40 44 43 42 43 33
7 8 9 7 7 9 9 9 7 9 9 8 4 4 5 7 28 30 29 33 27 12 12 18 22 20 19 19 27 19 9 10 14 15 20 18 14 19 11 23 36 37 30 23 20 20 32 31 25 22 25 21 18 26
7 17 7 5 6 7 10 15 11 14 18 19 16 18 21 18 12 15 18 17 18 22 26 25 18 15 23 28 30 23 15 17 19 13 11 14 13 21 16 23 31 34 37 39 45 42 37 37 33 31 29 28 35 36
5 13 8 9 9 13 20 22 25 23 15 7 8 10 9 11 11 6 11 15 19 20 19 14 17 19 18 17 28 30 22 13 6 15 22 29 28 22 23 26 26 26 35 40 40 38 39 34 23 18 19 27 29 26
12 16 8 5 8 14 23 7 6 5 5 3 3 3 5 5 5 3 7 12 15 17 18 15 15 18 20 21 22 23 27 25 20 18 19 16 19 24 26 20 28 35 32 31 23 19 18 21 19 19 25 29 27 23
8 12 11 6 6 5 4 6 3 2 2 3 2 4 3 3 4 5 6 12 17 14 13 14 17 17 16 15 13 12 9 8 8 7 7 7 7 9 8 10 14 16 16 18 18 18 16 16 20 22 24 24 19 15
Wind_Direction_500mb
303 313 321 326 329 334 339 342 342 339 338 335 334 336 340 346 347 352 354 353 359 290 292 286 274 249 275 285 282 323 330 34 301 259 259 229 234 202 201 212 191 209 192 209 184 217 243 152 144 204 205 149 178 187
300 308 315 320 322 327 331 333 335 335 331 330 329 327 327 332 336 334 334 335 331 284 273 286 277 272 262 266 266 267 273 304 284 297 356 304 265 221 210 230 171 227 208 215 222 211 153 191 239 197 174 157 187 191
297 304 312 314 316 320 324 326 326 329 329 321 323 320 316 318 323 323 314 322 323 301 306 281 258 292 271 266 250 230 238 219 238 9 305 291 273 294 203 220 199 213 183 222 187 223 217 211 231 212 208 157 179 197
295 303 307 309 312 317 320 321 320 320 321 317 316 319 315 315 313 310 305 311 301 285 269 285 301 295 301 228 242 243 254 253 261 296 273 265 276 278 300 304 222 205 159 192 230 268 292 240 225 203 178 142 148 160
295 301 303 306 310 313 315 315 316 314 312 314 310 310 313 312 311 303 307 302 282 229 283 286 296 303 278 252 271 246 243 243 243 247 229 241 260 272 247 258 245 193 178 191 221 227 228 232 213 198 195 177 166 160
296 299 301 304 307 309 311 313 313 311 307 306 309 307 307 309 307 312 316 38 306 237 295 299 298 297 308 291 263 243 242 234 220 215 234 235 243 290 270 250 236 206 203 204 226 268 215 254 182 175 160 159 167 166
294 295 299 303 306 309 309 310 311 309 303 303 302 307 304 299 288 272 252 272 283 291 272 296 282 275 321 303 279 258 236 217 213 224 238 251 241 206 253 261 279 220 207 211 226 186 199 175 174 180 183 164 164 162
290 295 299 301 304 306 307 307 308 308 305 303 305 303 298 292 283 277 287 265 256 257 252 262 270 286 282 302 297 23 288 213 213 217 220 216 230 225 252 242 247 244 195 211 212 193 56 158 149 153 163 160 160 169
289 294 296 299 302 303 306 306 307 308 312 314 309 307 297 289 247 320 170 278 275 216 226 230 242 290 291 288 323 299 264 210 227 210 213 204 210 213 224 254 256 224 188 165 169 187 194 169 158 152 157 158 164 172
290 293 295 298 300 300 302 306 309 311 320 320 316 308 272 233 251 291 295 206 210 211 236 259 256 261 283 289 280 260 228 238 202 203 190 227 229 215 233 253 261 267 241 213 139 146 179 172 172 163 167 161 169 169
287 289 295 299 299 298 295 304 307 314 330 334 312 270 268 296 300 226 246 225 195 227 227 255 252 276 268 241 234 204 233 237 221 174 187 204 214 202 226 253 280 285 259 244 248 272 260 198 180 175 173 169 167 160
282 286 291 297 297 295 300 301 306 312 319 304 295 290 303 312 252 238 232 308 265 293 261 262 294 298 271 224 208 210 241 244 219 164 200 205 59 73 243 262 266 274 276 264 254 246 242 218 196 183 180 175 173 163
279 281 284 284 287 285 294 297 303 310 323 322 315 287 275 256 276 249 277 264 291 291 273 293 311 287 271 235 217 246 234 202 332 194 155 54 8 0 341 304 270 266 258 255 247 243 240 229 209 199 190 185 179 176
269 274 272 272 284 280 278 292 292 318 331 310 308 296 247 268 251 223 242 270 285 279 295 299 299 257 274 262 214 266 274 325 315 140 66 358 344 333 337 318 293 270 260 246 243 237 235 232 218 208 203 197 190 186
255 261 266 264 278 276 264 261 238 298 302 274 269 251 244 257 273 278 289 288 291 301 305 307 271 243 279 299 93 308 320 41 21 19 302 320 324 327 326 328 309 286 268 247 236 233 229 224 214 199 201 202 202 196
242 248 239 233 273 256 151 121 263 300 253 240 240 262 268 279 283 299 304 302 329 321 322 305 298 312 339 323 11 360 348 6 337 283 298 317 316 324 332 337 323 291 264 244 226 223 221 217 213 207 206 206 205 198
199 202 191 220 171 147 143 280 273 225 238 240 244 247 264 277 275 286 295 301 325 321 310 309 320 351 289 360 356 7 235 243 297 311 331 336 315 326 335 344 334 300 267 237 222 213 210 207 206 206 203 198 192 191
177 173 167 138 144 153 250 246 248 247 253 254 256 260 258 266 280 286 294 311 312 305 293 290 289 293 329 357 327 322 315 324 310 327 322 325 337 344 344 353 343 315 276 230 216 209 203 202 200 194 190 185 182 183
164 169 164 166 186 226 264 251 227 265 256 268 267 275 276 281 292 294 292 302 298 285 276 266 259 261 358 284 309 321 327 329 324 326 328 317 332 346 354 0 356 343 279 210 198 201 200 199 194 187 184 182 180 179
146 150 156 166 170 349 253 247 238 258 268 273 277 281 280 284 291 297 297 291 280 243 243 236 249 293 305 316 318 313 319 328 324 322 330 336 350 350 350 353 11 16 40 170 184 188 184 183 184 177 177 178 181 174
158 150 188 175 215 219 244 247 247 247 279 265 284 296 288 291 293 295 307 316 235 235 262 283 299 307 311 313 309 301 326 328 320 318 321 332 337 334 355 13 26 40 59 134 162 173 175 174 171 168 164 164 162 157
168 150 158 135 214 252 258 238 250 277 267 272 287 263 277 292 289 274 302 233 246 292 306 306 311 318 326 346 354 335 339 338 328 331 326 327 337 335 337 26 38 47 60 95 130 152 162 161 164 161 160 153 151 148
142 157 169 142 229 237 258 268 256 245 258 280 300 277 262 283 306 331 264 228 173 351 329 321 326 327 340 354 11 347 351 350 346 339 334 351 1 334 320 58 54 60 71 82 113 129 136 148 153 152 151 149 145 141
161 136 166 208 206 278 287 251 245 269 272 275 285 295 295 299 307 266 271 270 236 338 333 315 325 326 2 28 39 0 350 353 359 360 357 6 10 39 36 54 76 77 87 95 113 120 126 131 138 138 141 141 141 139
75 176 213 240 212 234 246 258 247 264 264 311 289 295 6 316 346 344 311 287 313 322 328 317 323 331 330 349 6 357 354 349 355 10 26 37 42 39 51 65 88 95 109 102 100 107 111 124 129 136 139 139 138 135
222 207 186 218 198 222 240 271 253 297 303 285 267 328 347 326 320 275 250 304 296 309 325 311 313 322 350 356 358 7 3 12 20 42 40 30 59 59 54 73 106 129 113 114 120 112 104 99 100 110 122 129 130 129
230 235 225 229 245 265 269 254 275 282 295 297 313 328 310 317 298 275 339 355 347 354 356 317 302 313 320 341 349 4 8 27 50 67 75 87 88 79 45 44 58 130 151 144 118 117 167 145 128 125 127 116 110 109
232 250 227 186 233 235 266 274 236 226 239 253 271 266 296 330 331 339 350 12 33 41 12 10 9 358 349 347 8 20 5 57 70 85 82 84 86 77 75 92 69 86 151 124 122 130 112 112 125 130 134 122 112 109
231 226 213 246 223 239 229 228 239 222 221 213 249 257 268 290 314 325 348 12 23 354 317 321 336 6 32 32 14 11 107 125 83 77 79 82 99 71 101 105 106 90 93 126 146 136 122 119 121 140 146 145 146 150
242 200 220 240 223 233 238 216 246 288 286 264 263 279 291 310 322 322 342 4 15 9 11 10 17 41 46 24 24 47 82 71 88 66 41 46 61 69 98 109 110 94 91 106 112 107 107 106 111 120 126 143 158 161
228 190 226 231 252 258 284 291 288 291 294 286 267 241 274 304 313 319 1 356 355 359 359 10 23 35 41 51 43 50 57 64 108 86 75 69 87 89 107 108 114 111 113 104 91 84 82 96 114 128 152 172 166 159
203 208 219 238 270 298 309 270 261 258 269 256 231 297 301 289 288 298 10 22 18 20 24 47 62 55 53 58 50 50 54 61 70 82 87 88 81 88 89 97 97 103 113 114 120 140 158 147 142 147 143 146 147 149
216 223 225 257 276 275 298 321 274 357 64 17 338 329 346 328 324 360 10 15 12 24 43 65 65 60 49 43 43 37 29 28 34 40 36 47 50 72 79 85 96 104 114 118 117 115 123 132 132 135 143 149 146 140
Wind_Speed_850mb
36 38 42 45 42 40 41 41 41 38 36 35 33 30 28 30 35 34 29 19 23 10 50 35 13 21 17 12 10 25 24 2 9 8 6 9 10 15 12 10 13 17 14 11 8 13 19 21 22 16 8 13 29 36
38 39 42 43 40 39 42 43 42 41 38 35 35 34 31 29 31 37 33 32 32 20 41 62 70 80 63 64 44 15 19 26 9 9 6 9 8 7 15 23 3 11 15 10 17 15 6 42 11 21 14 11 19 39
39 40 43 42 39 40 42 43 41 40 38 35 34 34 31 30 31 31 41 41 35 23 52 26 14 36 44 34 21 22 16 17 13 4 10 7 12 5 11 15 13 15 16 12 4 20 19 19 33 24 17 7 12 21
39 42 42 39 40 42 43 43 42 39 37 36 34 34 33 31 31 34 41 46 39 21 12 29 18 31 18 14 26 42 50 40 29 26 10 9 10 5 7 10 15 7 23 17 11 17 8 22 41 33 29 13 17 26
40 41 39 39 42 42 43 43 41 40 38 37 36 36 35 33 34 44 49 53 33 22 12 33 69 62 29 38 44 52 66 59 42 17 17 16 20 14 9 6 9 17 13 14 16 23 17 18 43 49 39 20 24 34
40 39 39 40 41 43 43 42 42 41 39 38 38 37 36 34 36 44 17 2 3 16 15 11 27 71 52 27 33 42 56 53 53 26 20 25 44 18 10 8 17 32 28 22 9 15 26 21 26 47 38 30 32 32
39 38 39 40 41 42 41 41 42 41 39 41 41 41 39 36 37 30 16 16 22 20 9 17 17 16 36 32 19 25 40 41 47 48 44 40 14 21 18 22 19 30 33 30 25 22 10 23 25 49 30 33 33 29
37 38 39 39 39 38 39 40 41 39 39 42 45 45 43 44 49 53 52 33 26 31 17 7 12 16 9 35 20 2 7 33 34 44 32 36 29 23 12 36 54 26 25 20 22 35 5 21 43 44 40 41 37 32
37 38 38 38 38 37 38 37 37 37 40 41 42 41 44 19 5 4 20 14 23 30 10 14 8 14 7 6 16 11 9 12 22 22 30 19 17 19 25 51 32 37 20 15 18 22 23 32 51 49 45 37 31 35
37 37 37 37 37 36 33 31 32 35 36 36 35 10 7 5 12 23 16 8 19 23 19 15 31 25 40 51 15 7 12 13 15 24 39 18 27 40 42 49 51 33 30 16 15 11 23 33 50 57 50 34 26 30
33 32 34 34 31 27 26 29 29 31 30 18 10 9 17 37 27 7 7 13 16 10 12 14 29 23 33 15 8 17 5 10 15 21 27 17 20 32 59 67 44 25 23 24 21 12 16 47 70 61 52 43 34 28
30 30 29 26 22 21 22 21 23 24 21 20 26 38 21 5 4 7 5 10 6 4 10 12 23 44 27 28 14 14 9 9 14 28 17 13 8 11 29 56 60 44 33 26 26 21 13 24 61 63 59 52 46 40
28 26 23 21 20 19 20 18 19 19 21 18 6 7 5 3 4 4 4 4 7 11 15 30 22 20 15 23 10 7 12 9 8 13 6 10 35 47 38 33 42 40 37 33 29 30 24 23 43 61 60 56 53 46
22 19 17 17 16 18 18 16 11 8 9 5 6 9 4 5 5 6 6 9 21 25 54 55 34 12 11 7 7 12 9 3 10 8 8 14 49 59 53 36 34 37 34 35 31 34 37 34 39 60 55 54 56 53
18 17 17 14 14 12 10 8 6 5 5 6 5 7 8 12 16 20 28 27 38 44 43 44 18 13 6 8 1 6 15 10 14 9 7 40 70 65 59 39 33 38 38 41 38 43 44 43 42 54 56 44 47 56
15 14 12 9 6 3 2 2 2 5 6 6 9 10 17 20 23 18 23 29 36 40 45 22 6 7 5 10 10 11 10 11 9 9 50 66 65 69 61 41 34 41 50 49 48 46 47 49 48 49 50 46 44 55
14 12 8 3 7 9 4 3 5 7 6 8 11 20 31 35 34 31 25 31 38 24 6 9 9 8 9 7 10 5 2 6 15 38 51 69 64 65 50 42 38 38 39 48 56 51 48 49 52 52 50 50 51 51
14 13 11 12 8 2 5 5 5 6 10 15 15 14 16 28 35 33 32 32 14 14 13 4 9 5 5 7 8 7 16 32 22 44 46 60 69 61 42 42 42 31 27 42 59 56 48 55 56 57 58 58 55 52
14 12 13 8 3 1 1 4 6 7 13 18 27 30 28 33 47 41 35 32 28 21 14 8 7 5 3 2 16 34 39 33 34 45 44 42 51 50 39 41 32 21 9 27 47 57 52 57 66 68 65 60 57 52
16 12 9 4 1 0 3 5 6 9 10 9 25 23 23 28 32 36 31 25 22 8 8 6 6 5 9 24 39 45 42 32 32 41 43 49 54 50 36 39 36 24 6 15 37 48 51 62 64 64 64 60 54 49
15 12 5 4 3 6 6 5 10 11 13 12 20 26 20 23 23 12 8 8 5 6 8 12 22 30 39 40 29 29 25 25 25 27 33 44 45 43 37 33 35 31 14 17 32 45 62 67 70 63 63 57 52 54
11 12 5 2 1 4 8 11 11 12 10 14 16 10 14 13 9 5 12 6 5 4 10 22 29 33 34 26 17 20 22 16 16 24 20 28 34 36 31 31 42 37 31 21 31 43 56 65 68 68 64 65 64 63
11 7 2 2 2 5 7 9 7 7 7 7 11 8 6 8 8 21 6 4 3 10 21 28 31 23 17 16 13 18 21 22 22 23 22 26 30 21 15 22 35 34 35 31 33 47 55 58 64 70 70 69 68 67
6 3 3 4 5 5 7 7 8 7 7 7 6 10 7 7 15 6 6 5 7 17 25 24 24 18 11 10 10 22 29 27 26 22 19 27 25 17 17 21 27 32 43 43 44 52 60 68 72 74 72 72 69 67
2 4 5 6 7 5 6 5 5 6 6 11 5 6 8 12 7 8 6 10 26 27 17 12 15 12 12 12 14 26 24 37 31 19 17 22 28 34 23 19 27 26 34 47 58 66 56 57 64 66 67 66 67 66
4 7 8 5 5 6 4 5 4 5 7 5 5 9 9 7 3 9 6 19 24 21 20 14 14 13 13 17 21 28 32 25 18 13 11 15 19 24 32 21 18 19 23 28 28 49 51 59 61 53 54 61 65 63
5 6 8 11 7 7 9 10 6 5 4 6 6 6 5 7 5 7 34 43 37 25 11 8 11 16 19 20 22 16 24 14 10 19 21 20 23 17 14 33 27 15 22 23 19 20 14 21 26 32 26 30 39 40
9 5 7 6 8 11 6 4 3 5 6 7 6 4 5 7 5 20 33 34 26 19 14 20 18 14 20 22 18 17 15 18 24 31 34 28 24 25 21 22 24 20 28 32 32 31 40 39 40 44 43 42 43 33
7 8 9 7 7 9 9 9 7 9 9 8 4 4 5 7 28 30 29 33 27 12 12 18 22 20 19 19 27 19 9 10 14 15 20 18 14 19 11 23 36 37 30 23 20 20 32 31 25 22 25 21 18 26
7 17 7 5 6 7 10 15 11 14 18 19 16 18 21 18 12 15 18 17 18 22 26 25 18 15 23 28 30 23 15 17 19 13 11 14 13 21 16 23 31 34 37 39 45 42 37 37 33 31 29 28 35 36
5 13 8 9 9 13 20 22 25 23 15 7 8 10 9 11 11 6 11 15 19 20 19 14 17 19 18 17 28 30 22 13 6 15 22 29 28 22 23 26 26 26 35 40 40 38 39 34 23 18 19 27 29 26
12 16 8 5 8 14 23 7 6 5 5 3 3 3 5 5 5 3 7 12 15 17 18 15 15 18 20 21 22 23 27 25 20 18 19 16 19 24 26 20 28 35 32 31 23 19 18 21 19 19 25 29 27 23
8 12 11 6 6 5 4 6 3 2 2 3 2 4 3 3 4 5 6 12 17 14 13 14 17 17 16 15 13 12 9 8 8 7 7 7 7 9 8 10 14 16 16 18 18 18 16 16 20 22 24 24 19 15
Wind_Direction_850mb
303 313 321 326 329 334 339 342 342 339 338 335 334 336 340 346 347 352 354 353 359 290 292 286 274 249 275 285 282 323 330 34 301 259 259 229 234 202 201 212 191 209 192 209 184 217 243 152 144 204 205 149 178 187
300 308 315 320 322 327 331 333 335 335 331 330 329 327 327 332 336 334 334 335 331 284 273 286 277 272 262 266 266 267 273 304 284 297 356 304 265 221 210 230 171 227 208 215 222 211 153 191 239 197 174 157 187 191
297 304 312 314 316 320 324 326 326 329 329 321 323 320 316 318 323 323 314 322 323 301 306 281 258 292 271 266 250 230 238 219 238 9 305 291 273 294 203 220 199 213 183 222 187 223 217 211 231 212 208 157 179 197
295 303 307 309 312 317 320 321 320 320 321 317 316 319 315 315 313 310 305 311 301 285 269 285 301 295 301 228 242 243 254 253 261 296 273 265 276 278 300 304 222 205 159 192 230 268 292 240 225 203 178 142 148 160
295 301 303 306 310 313 315 315 316 314 312 314 310 310 313 312 311 303 307 302 282 229 283 286 296 303 278 252 271 246 243 243 243 247 229 241 260 272 247 258 245 193 178 191 221 227 228 232 213 198 195 177 166 160
296 299 301 304 307 309 311 313 313 311 307 306 309 307 307 309 307 312 316 38 306 237 295 299 298 297 308 291 263 243 242 234 220 215 234 235 243 290 270 250 236 206 203 204 226 268 215 254 182 175 160 159 167 166
294 295 299 303 306 309 309 310 311 309 303 303 302 307 304 299 288 272 252 272 283 291 272 296 282 275 321 303 279 258 236 217 213 224 238 251 241 206 253 261 279 220 207 211 226 186 199 175 174 180 183 164 164 162
290 295 299 301 304 306 307 307 308 308 305 303 305 303 298 292 283 277 287 265 256 257 252 262 270 286 282 302 297 23 288 213 213 217 220 216 230 225 252 242 247 244 195 211 212 193 56 158 149 153 163 160 160 169
289 294 296 299 302 303 306 306 307 308 312 314 309 307 297 289 247 320 170 278 275 216 226 230 242 290 291 288 323 299 264 210 227 210 213 204 210 213 224 254 256 224 188 165 169 187 194 169 158 152 157 158 164 172
290 293 295 298 300 300 302 306 309 311 320 320 316 308 272 233 251 291 295 206 210 211 236 259 256 261 283 289 280 260 228 238 202 203 190 227 229 215 233 253 261 267 241 213 139 146 179 172 172 163 167 161 169 169
287 289 295 299 299 298 295 304 307 314 330 334 312 270 268 296 300 226 246 225 195 227 227 255 252 276 268 241 234 204 233 237 221 174 187 204 214 202 226 253 280 285 259 244 248 272 260 198 180 175 173 169 167 160
282 286 291 297 297 295 300 301 306 312 319 304 295 290 303 312 252 238 232 308 265 293 261 262 294 298 271 224 208 210 241 244 219 164 200 205 59 73 243 262 266 274 276 264 254 246 242 218 196 183 180 175 173 163
279 281 284 284 287 285 294 297 303 310 323 322 315 287 275 256 276 249 277 264 291 291 273 293 311 287 271 235 217 246 234 202 332 194 155 54 8 0 341 304 270 266 258 255 247 243 240 229 209 199 190 185 179 176
269 274 272 272 284 280 278 292 292 318 331 310 308 296 247 268 251 223 242 270 285 279 295 299 299 257 274 262 214 266 274 325 315 140 66 358 344 333 337 318 293 270 260 246 243 237 235 232 218 208 203 197 190 186
255 261 266 264 278 276 264 261 238 298 302 274 269 251 244 257 273 278 289 288 291 301 305 307 271 243 279 299 93 308 320 41 21 19 302 320 324 327 326 328 309 286 268 247 236 233 229 224 214 199 201 202 202 196
242 248 239 233 273 256 151 121 263 300 253 240 240 262 268 279 283 299 304 302 329 321 322 305 298 312 339 323 11 360 348 6 337 283 298 317 316 324 332 337 323 291 264 244 226 223 221 217 213 207 206 206 205 198
199 202 191 220 171 147 143 280 273 225 238 240 244 247 264 277 275 286 295 301 325 321 310 309 320 351 289 360 356 7 235 243 297 311 331 336 315 326 335 344 334 300 267 237 222 213 210 207 206 206 203 198 192 191
177 173 167 138 144 153 250 246 248 247 253 254 256 260 258 266 280 286 294 311 312 305 293 290 289 293 329 357 327 322 315 324 310 327 322 325 337 344 344 353 343 315 276 230 216 209 203 202 200 194 190 185 182 183
164 169 164 166 186 226 264 251 227 265 256 268 267 275 276 281 292 294 292 302 298 285 276 266 259 261 358 284 309 321 327 329 324 326 328 317 332 346 354 0 356 343 279 210 198 201 200 199 194 187 184 182 180 179
146 150 156 166 170 349 253 247 238 258 268 273 277 281 280 284 291 297 297 291 280 243 243 236 249 293 305 316 318 313 319 328 324 322 330 336 350 350 350 353 11 16 40 170 184 188 184 183 184 177 177 178 181 174
158 150 188 175 215 219 244 247 247 247 279 265 284 296 288 291 293 295 307 316 235 235 262 283 299 307 311 313 309 301 326 328 320 318 321 332 337 334 355 13 26 40 59 134 162 173 175 174 171 168 164 164 162 157
168 150 158 135 214 252 258 238 250 277 267 272 287 263 277 292 289 274 302 233 246 292 306 306 311 318 326 346 354 335 339 338 328 331 326 327 337 335 337 26 38 47 60 95 130 152 162 161 164 161 160 153 151 148
142 157 169 142 229 237 258 268 256 245 258 280 300 277 262 283 306 331 264 228 173 351 329 321 326 327 340 354 11 347 351 350 346 339 334 351 1 334 320 58 54 60 71 82 113 129 136 148 153 152 151 149 145 141
161 136 166 208 206 278 287 251 245 269 272 275 285 295 295 299 307 266 271 270 236 338 333 315 325 326 2 28 39 0 350 353 359 360 357 6 10 39 36 54 76 77 87 95 113 120 126 131 138 138 141 141 141 139
75 176 213 240 212 234 246 258 247 264 264 311 289 295 6 316 346 344 311 287 313 322 328 317 323 331 330 349 6 357 354 349 355 10 26 37 42 39 51 65 88 95 109 102 100 107 111 124 129 136 139 139 138 135
222 207 186 218 198 222 240 271 253 297 303 285 267 328 347 326 320 275 250 304 296 309 325 311 313 322 350 356 358 7 3 12 20 42 40 30 59 59 54 73 106 129 113 114 120 112 104 99 100 110 122 129 130 129
230 235 225 229 245 265 269 254 275 282 295 297 313 328 310 317 298 275 339 355 347 354 356 317 302 313 320 341 349 4 8 27 50 67 75 87 88 79 45 44 58 130 151 144 118 117 167 145 128 125 127 116 110 109
232 250 227 186 233 235 266 274 236 226 239 253 271 266 296 330 331 339 350 12 33 41 12 10 9 358 349 347 8 20 5 57 70 85 82 84 86 77 75 92 69 86 151 124 122 130 112 112 125 130 134 122 112 109
231 226 213 246 223 239 229 228 239 222 221 213 249 257 268 290 314 325 348 12 23 354 317 321 336 6 32 32 14 11 107 125 83 77 79 82 99 71 101 105 106 90 93 126 146 136 122 119 121 140 146 145 146 150
242 200 220 240 223 233 238 216 246 288 286 264 263 279 291 310 322 322 342 4 15 9 11 10 17 41 46 24 24 47 82 71 88 66 41 46 61 69 98 109 110 94 91 106 112 107 107 106 111 120 126 143 158 161
228 190 226 231 252 258 284 291 288 291 294 286 267 241 274 304 313 319 1 356 355 359 359 10 23 35 41 51 43 50 57 64 108 86 75 69 87 89 107 108 114 111 113 104 91 84 82 96 114 128 152 172 166 159
203 208 219 238 270 298 309 270 261 258 269 256 231 297 301 289 288 298 10 22 18 20 24 47 62 55 53 58 50 50 54 61 70 82 87 88 81 88 89 97 97 103 113 114 120 140 158 147 142 147 143 146 147 149
216 223 225 257 276 275 298 321 274 357 64 17 338 329 346 328 324 360 10 15 12 24 43 65 65 60 49 43 43 37 29 28 34 40 36 47 50 72 79 85 96 104 114 118 117 115 123 132 132 135 143 149 146 140